Location: Abraham Lincoln Continuation High School
(33.9711°N, 117.3662°W)
Time: 10:30:06
(UTC+00:00)

Cosmos 1680 Rocket - Pass Details

Date: 25 January 2021
Orbit: 760 x 780 km, 74.1° (Epoch: 25 February)

Event Time Altitude Azimuth Distance (km) Brightness Sun altitude
Rises 03:41:24 0° 323° (NW) 3,231 7.2 -30.8°
Reaches altitude 10° 03:44:31 10° 304° (NW) 2,298 6.6 -31.4°
Maximum altitude 03:47:50 17° 264° (W) 1,836 6.2 -32.1°
Drops below altitude 10° 03:51:09 10° 224° (SW) 2,285 6.4 -32.8°
Sets 03:54:15 0° 204° (SSW) 3,205 7.0 -33.4°
